Regional Weather Roundup
Issued by NWS Cleveland, OH

Home | Current Version | Previous Version | Graphics & Text | Print | Product List | Glossary On
Versions: 1 2 3 4 5 6 7 8 9 10 11 12 13 14 15 16 17 18 19 20 21 22 23 24 25 26 27 28 29 30 31 32 33 34 35 36 37 38 39 40 41 42 43 44 45 46 47 48 49 50
401
ASUS41 KCLE 101010
RWRCLE
OHIO REGIONAL WEATHER ROUNDUP
NATIONAL WEATHER SERVICE CLEVELAND, OH
500 AM EST WED FEB 10 2016

NOTE: "FAIR" INDICATES FEW OR NO CLOUDS BELOW 12,000 FEET WITH NO
SIGNIFICANT WEATHER AND/OR OBSTRUCTIONS TO VISIBILITY.

OHZ001>008-015>018-024>027-034-035-043-044-101100-
   NORTHWEST OHIO

CITY           SKY/WX    TMP DP  RH WIND       PRES   REMARKS
DEFIANCE       CLOUDY    21  14  74 W10       29.81S WCI  10
FINDLAY        FLURRIES  19  13  77 W22       29.79S WCI   2
TOLEDO EXPRESS CLOUDY    21  16  81 W14       29.77R WCI   8
TOLEDO EXEC    CLOUDY    22  16  78 SW14      29.78R WCI   9
LIMA           LGT SNOW  17  13  84 W18       29.82R FOG     WCI   1
$$

OHZ009>014-019>023-028>033-038-089-101100-
   NORTHEAST OHIO

CITY           SKY/WX    TMP DP  RH WIND       PRES   REMARKS
CLE-HOPKINS    FLURRIES  22  16  78 SW16      29.76R WCI   8
CLE-LAKEFRONT  CLOUDY    24  19  81 SW24G30   29.73R WCI   8
CUY CO. ARPT   NOT AVBL
LORAIN-ELYRIA  CLOUDY    21  15  78 W15G24    29.75R WCI   8
ASHTABULA      FLURRIES  25  20  81 W9        29.67R WCI  15
AKRON-CANTON   LGT SNOW  21  15  78 W17G23    29.73R WCI   7
WOOSTER        FLURRIES  20  15  81 W14       29.75R WCI   7
MANSFIELD      CLOUDY    17  13  84 SW8G21    29.75R WCI   7
YOUNGSTOWN     FLURRIES  23  18  81 W10G21    29.69R WCI  12
$$

OHZ042-051>053-060>062-070>072-077>081-101100-
  SOUTHWEST OHIO

CITY           SKY/WX    TMP DP  RH WIND       PRES   REMARKS
CINC-COVINGTON FLURRIES  15   9  76 W10       29.93S WCI   2
CINC-LUNKEN    CLOUDY    17  10  74 W14       29.98R WCI   3
HAMILTON       LGT SNOW  16  11  80 W10       29.95S WCI   4
DAYTON         LGT SNOW  15  11  83 W15       29.88R FOG     WCI   0
WRIGHT-PAT AFB FLURRIES  15  10  82 SW13      29.88S WCI   1
DAYTON GENERAL LGT SNOW  14   9  80 W10       29.89R WCI   1
WILMINGTON     LGT SNOW  13   8  81 W16       29.88R WCI  -3
$$

OHZ036-037-039>041-045>050-054>059-063>069-073>076-082>088-101100-
  CENTRAL AND SOUTHEAST OHIO

CITY           SKY/WX    TMP DP  RH WIND       PRES   REMARKS
COLUMBUS       FLURRIES  16   8  71 SW13      29.85R WCI   2
OSU AIRPORT    FLURRIES  16  10  77 W12       29.84R WCI   3
BOLTON FIELD   CLOUDY    15   9  78 W13       29.86S WCI   1
RICKENBACK AFB CLOUDY    15   9  77 W13G20    29.87R WCI   1
NEWARK         LGT SNOW  17  11  77 MISG      29.84R
MARION         LGT SNOW  18  11  74 W12G23    29.81R WCI   5
LANCASTER      FLURRIES  15   8  73 W12       29.87R WCI   2
ZANESVILLE     CLOUDY    20  12  71 W12       29.83R WCI   8
NEW PHILLY     LGT SNOW  21  15  78 W10G17    29.79R WCI  10
$$




USA.gov is the U.S. government's official web portal to all federal, state and local government web resources and services.